EPKTEPKK

Guest
Details From EPKT - PYRZOWICE
To EPKK - BALICE
Flight Number -
Tags decoded
Created
Modified
Stats Distance 41 nm / 76 km
Max Altitude 0 ft / 0 m
Waypoints 3
Social Downloads 11
Likes 0
Share

Download

Looking for another format? Having issues loading an existing format? Contact us
Advertisement - Login to hide

Notes

Requested: EPKT 5027N 01904E EPKT X 5023N 01902E EPKT GOLF 5019N 01913E EPKT HOTEL 5016N 01925E EPKT BRAVO 5012N 01927E CZY 5008N 01937E EPKT INDIA 5007N 01947E EPKK ZULU EPKK Unmatched points: GOLF CZY ZULU

Route

EPKT 5007N01947E EPKK

ID Type Via Altitude (ft/m) Position (lat/lon) Dist (leg/tot) Name
O EPKT APT - 0 / 0 50.47426 / 19.07436 - / 0 nm PYRZOWICE
5007N01947E LATLON - 0 / 0 50.07000 / 19.47000 28 / 28 nm
O EPKK APT - 0 / 0 50.07782 / 19.78550 12 / 40 nm BALICE

Altitude Profile

Advertisement - Login to hide

EPKT

Details ICAO EPKT (KTW)
Name Katowice Airport
Region Poland
Timezone Europe/Warsaw (UTC+2.0)
Stats Elevation 995 ft / 303 m (AMSL)
Location 50.476000° 19.082100°
Runways 1
Magnetic Variation 5.417° E

METAR

EPKT 110600Z VRB01KT CAVOK 21/17 Q1019

Decode

TAF

TAF EPKT 110530Z 1106/1206 05004KT CAVOK TEMPO 1111/1118 VRB20G35KT 2000 TSRA SCT005 BKN033CB TEMPO 1120/1201 3000 BR

Decode

Departure Runways

ID Width Length Bearing (true/mag) Surface Threshold Overrun Markings Lighting
09 145 ft / 44 m 10,499 ft / 3,200 m 90.18° / 84.76° CONCRETE 0 ft / 0 m 102 ft / 31 m PREC-APP CENTERLINE EDGE THRESHOLD SALS REIL-OMNI
27 145 ft / 44 m 10,499 ft / 3,200 m 270.21° / 264.80° CONCRETE 1,056 ft / 322 m 98 ft / 30 m PREC-APP CENTERLINE EDGE THRESHOLD CALVERT REIL-OMNI

EPKK

Details ICAO EPKK (KRK)
Name Krakow-John Paul II
Region Poland
Timezone Europe/Warsaw (UTC+2.0)
Stats Elevation 791 ft / 241 m (AMSL)
Location 50.077800° 19.785500°
Runways 1
Magnetic Variation 5.528° E

METAR

EPKK 110600Z 07003KT CAVOK 22/17 Q1019

Decode

TAF

TAF EPKK 110530Z 1106/1206 07005KT CAVOK TEMPO 1112/1120 VRB20G35KT 2000 TSRA SCT005 BKN035CB BECMG 1121/1124 4000 BR TEMPO 1200/1204 2000 BR BECMG 1204/1206 CAVOK

Decode

Destination Runways

ID Width Length Bearing (true/mag) Surface Threshold Overrun Markings Lighting
07 197 ft / 60 m 8,352 ft / 2,546 m 77.76° / 72.23° CONCRETE 0 ft / 0 m 0 ft / 0 m PREC-APP CENTERLINE EDGE THRESHOLD ALSF-I REIL-OMNI
25 197 ft / 60 m 8,352 ft / 2,546 m 257.78° / 252.26° CONCRETE 778 ft / 237 m 0 ft / 0 m PREC-APP CENTERLINE EDGE THRESHOLD ALSF-II TDZ REIL-OMNI

Approach Navaids

Runway Type Ident Frequency Range Bearing (true/mag) Slope Elevation
25 GS KRW 110.30 MHz 10 nm / 19 km 258.52° / 252.99 ° 3.00° 791 ft / 241 m (AMSL)
25 MM MM - - 257.76° / 252.23 ° - 791 ft / 241 m (AMSL)
25 DME KRW 110.30 MHz 18 nm / 33 km - - 827 ft / 252 m (AMSL)
25 OM OM - - 257.76° / 252.23 ° - 791 ft / 241 m (AMSL)
25 LOC-ILS KRW 110.30 MHz 18 nm / 33 km 257.73° / 252.20 ° - 791 ft / 241 m (AMSL)

Popular Alternatives